Powrót do katalogu

STARLINK-5831

AktywnyŁącznośćVLEO
NORAD 57332·PAYLOAD·🇺🇸 United States

Wystrzelony Jul 16, 2023 z Cape Canaveral Space Force Station

Loading…

Następne Przeloty (najbliższe 24 godziny)

TLE

ŚwieżeSource: CelesTrak SupGP

Epoka: Sep 15, 2026, 02:11 UTC

1 57332C 23099E   26258.09145833 -.00010902  00000+0 -39488-3 0  2585
2 57332  42.9998 262.6873 0001495 264.7201 104.5885 15.27581393    14

Śledź STARLINK-5831 w czasie rzeczywistym z AllMySat

Download on the App Store